Wind_Speed
17 16 16 15 14 13 12 12 13 13 12 11 11 11 10 10 10 10 11 11 11 11 12 14 15 16 17 18 20 20 21 21 23 24 25 26 27 27 28 30 31 32
18 18 17 16 16 15 15 15 14 13 12 12 13 13 13 13 12 12 13 15 15 15 15 16 17 18 19 20 21 21 22 23 24 25 26 27 28 29 30 31 32 33
19 19 18 17 17 17 16 15 14 13 13 13 14 15 15 15 15 15 15 16 18 18 18 18 19 20 20 21 22 22 23 24 25 26 27 28 29 30 30 32 33 34
20 19 19 18 18 17 16 14 13 13 14 15 16 17 18 18 19 19 18 18 19 20 20 19 20 21 22 22 23 23 24 25 26 27 28 29 30 31 32 33 34 35
21 21 20 19 18 17 16 15 14 15 16 17 18 20 21 22 22 22 22 21 21 22 22 21 22 23 23 24 24 25 25 26 28 29 30 30 31 32 33 35 36 37
22 21 20 19 18 18 18 17 17 17 17 18 20 22 23 24 24 24 24 24 23 23 24 24 24 24 25 26 26 27 27 28 29 30 31 32 33 34 35 36 37 38
23 22 21 21 20 20 19 19 19 19 19 20 22 23 25 25 26 25 25 25 25 25 25 25 26 26 27 28 29 29 30 30 31 32 33 34 35 35 36 37 39 40
26 26 25 24 22 22 21 20 21 21 22 23 24 25 26 26 26 26 26 26 26 26 26 27 28 28 29 30 31 31 32 32 33 34 35 35 36 37 37 39 40 41
30 29 28 26 25 24 23 23 24 24 25 26 26 27 27 28 28 28 28 28 27 27 27 28 29 30 31 32 33 33 34 34 35 36 36 37 38 39 39 40 41 43
32 31 30 29 28 27 27 27 27 28 29 29 29 29 29 29 29 30 30 30 29 29 29 30 31 33 33 34 34 35 36 37 37 38 39 39 40 41 41 42 43 44
34 33 32 32 30 30 31 31 31 32 32 32 32 31 31 31 31 31 31 31 31 31 31 32 34 35 36 36 36 37 37 38 39 40 40 41 42 43 43 44 45 45
36 36 35 34 34 34 34 35 35 35 35 35 34 34 34 33 33 33 33 34 34 34 34 35 36 37 38 38 38 38 39 40 41 42 42 43 43 44 46 46 47 47
39 39 38 37 37 37 37 38 38 38 38 37 37 36 36 35 36 36 36 36 36 36 36 37 38 39 40 40 40 40 41 42 43 44 44 45 45 46 48 48 49 49
42 42 41 40 39 39 40 40 41 40 40 39 38 38 38 38 38 38 38 38 38 38 38 38 40 41 42 42 42 42 43 44 45 46 46 46 47 48 49 50 51 50
44 44 43 42 42 42 43 43 43 42 42 41 41 40 40 40 40 40 40 40 40 40 39 40 41 43 44 44 44 44 45 46 47 48 48 48 49 50 51 52 52 52
45 46 46 44 44 44 44 44 44 44 43 43 42 42 42 42 42 42 42 42 42 42 42 42 43 45 46 46 46 47 47 48 49 50 50 50 51 52 53 54 54 54
48 48 47 46 45 45 45 45 45 45 44 44 44 44 44 44 43 44 44 44 45 45 45 45 46 48 49 49 49 50 50 50 51 52 52 53 53 54 55 56 56 56
49 49 49 48 47 46 46 46 46 46 46 46 46 46 46 46 46 46 46 46 47 48 48 49 50 51 52 52 52 52 52 52 53 53 54 55 56 56 57 58 59 59
50 50 50 50 49 48 47 47 47 48 49 49 49 49 49 49 49 49 49 50 50 51 51 52 53 54 54 54 54 54 54 54 55 55 56 57 58 59 59 60 61 61
53 53 53 53 52 51 50 50 51 51 52 52 52 52 52 52 52 52 53 53 52 53 54 54 55 56 57 57 57 56 56 56 57 58 59 59 61 61 62 63 63 63
55 56 55 55 55 54 54 54 54 55 56 56 55 54 54 54 54 55 56 56 55 55 56 57 58 59 60 60 60 60 60 60 60 61 62 62 63 64 64 65 66 66
58 58 58 58 58 58 58 59 59 59 59 59 58 58 57 57 57 58 58 59 59 59 59 60 61 62 63 64 63 63 63 63 63 64 64 64 65 66 66 67 67 67
59 59 60 60 60 61 62 62 62 62 62 62 62 61 61 61 61 61 61 61 62 62 63 63 64 65 65 66 66 65 65 65 65 65 65 65 66 66 66 67 66 65
53 53 54 55 56 57 58 59 59 60 60 60 60 60 61 61 61 61 61 61 61 61 61 61 62 62 63 63 64 63 62 62 63 64 64 64 64 65 65 65 64 64
46 47 48 50 51 51 52 53 53 53 53 53 54 54 55 55 55 55 55 55 54 53 53 54 54 55 56 57 58 58 57 57 58 59 60 61 62 62 62 62 61 61
42 43 44 46 46 46 47 47 48 47 47 47 48 48 47 47 47 48 49 49 48 47 47 48 49 50 51 53 54 55 54 54 54 55 57 59 59 59 60 59 59 59
Wind_Direction
224 226 231 236 239 243 247 251 253 256 263 269 274 280 287 291 295 301 304 302 302 302 304 307 310 315 320 325 330 332 333 335 336 337 338 338 339 340 340 341 342 344
229 228 232 237 242 244 246 248 251 255 262 267 271 276 280 283 287 292 295 299 302 303 303 305 307 311 315 318 322 326 329 331 333 334 335 336 337 337 338 339 339 341
234 232 234 239 242 243 244 247 251 258 265 271 275 279 281 284 287 288 290 293 298 300 301 303 304 306 310 313 317 321 324 327 329 330 332 332 334 335 336 337 337 338
239 238 238 240 241 243 246 252 260 269 275 279 281 283 284 285 287 288 290 291 293 295 299 302 303 305 309 312 314 318 322 324 326 327 329 330 331 332 333 334 335 336
240 239 240 240 243 248 255 261 269 276 281 284 286 287 286 286 285 286 288 289 290 293 297 302 305 306 309 311 313 317 320 322 324 326 327 328 329 330 330 331 332 334
237 237 238 240 245 253 261 268 274 278 282 285 287 288 288 288 287 286 287 288 290 292 296 301 305 306 308 310 312 315 318 320 322 323 325 327 328 328 328 329 330 331
235 235 237 241 248 255 262 268 273 277 280 283 285 286 287 287 287 287 287 289 290 292 295 299 303 305 306 307 310 312 315 317 320 321 323 325 326 326 327 327 328 329
233 234 237 242 248 253 259 265 270 275 278 280 282 284 285 284 285 286 287 289 290 293 295 297 300 302 303 304 307 310 312 315 317 319 321 322 323 324 325 325 326 327
232 234 237 242 247 253 258 264 269 273 277 279 281 281 282 282 283 284 286 288 290 292 294 295 296 298 300 302 305 308 310 312 314 316 318 319 321 321 322 323 324 325
236 237 241 245 250 255 260 265 268 272 274 277 279 279 280 280 280 281 284 287 289 291 292 292 293 295 298 300 303 305 308 310 312 313 315 317 318 318 319 320 321 322
240 241 244 247 252 256 260 264 267 269 272 275 276 277 277 278 278 279 281 284 287 289 289 290 292 294 296 298 301 304 306 308 309 311 313 314 315 315 316 317 318 320
241 243 245 248 251 255 259 262 264 267 270 272 274 274 275 276 276 277 279 282 284 287 288 289 291 293 294 297 299 302 304 305 307 309 310 312 313 313 313 314 315 317
243 244 246 249 252 255 258 261 263 265 268 270 271 272 272 274 275 276 278 281 283 285 287 289 290 292 293 296 298 301 303 304 305 306 308 310 311 311 311 311 312 314
246 248 249 251 253 255 258 260 262 264 266 267 268 269 270 272 273 275 278 280 282 284 286 288 289 291 292 295 297 299 301 302 303 304 306 307 309 309 308 309 310 312
251 253 253 254 255 257 258 260 261 263 265 266 268 269 270 271 273 275 277 279 281 283 285 287 289 290 291 294 296 297 298 300 301 302 304 305 306 307 306 306 307 309
254 256 257 257 258 259 260 262 263 264 266 268 269 270 271 273 275 277 279 280 282 284 285 287 288 289 291 293 294 296 297 298 299 301 302 303 304 304 304 304 305 306
254 256 258 258 259 260 261 263 265 266 268 269 270 271 273 275 277 278 280 281 283 284 285 286 288 289 290 292 293 295 296 297 298 299 300 301 302 301 301 302 303 304
255 256 258 259 259 260 261 263 266 267 269 270 271 273 274 276 276 277 279 281 283 284 286 287 288 289 290 291 292 293 295 296 296 297 298 299 298 298 299 300 301 301
257 258 259 260 261 262 263 265 266 268 269 270 271 273 274 275 276 277 279 280 282 284 285 286 288 288 289 290 290 291 292 293 294 295 295 295 295 296 297 298 298 299
260 261 262 263 263 264 265 266 267 268 269 270 271 272 274 275 277 278 279 280 281 282 284 285 286 287 287 288 289 290 291 292 292 292 292 292 293 294 294 295 296 296
260 261 263 264 265 266 267 267 268 269 269 271 272 273 274 275 276 277 278 279 280 281 282 283 284 284 286 286 287 288 289 289 290 290 290 290 291 291 292 293 293 293
260 261 262 264 265 266 266 267 267 268 269 270 272 273 274 274 274 275 277 278 279 280 280 281 282 283 284 284 285 286 287 287 288 288 288 288 288 289 290 290 291 291
261 263 264 265 266 266 266 267 267 268 270 271 272 273 273 274 274 275 276 277 278 279 280 280 281 282 283 283 284 284 285 285 286 286 286 286 286 287 287 288 289 290
265 266 266 266 266 267 268 269 270 271 271 272 273 274 274 275 276 276 277 277 278 279 280 281 282 282 283 283 283 284 284 285 285 285 285 285 284 285 285 286 287 289
263 264 264 265 265 267 268 270 271 272 273 274 275 276 277 277 278 279 279 279 280 281 282 282 282 283 283 283 284 284 284 284 284 284 284 284 284 284 285 287 288 289
260 261 262 264 265 267 268 270 271 272 274 275 276 276 278 279 280 281 282 282 282 281 281 282 282 283 283 284 285 285 285 285 285 285 285 284 285 286 287 289 290 291
Height
10993 10995 10995 10996 10996 10997 10997 10997 10997 10997 10997 10998 10998 10998 10998 10998 10999 10999 10998 10998 10998 10998 10997 10997 10996 10995 10994 10993 10992 10991 10990 10989 10987 10986 10985 10984 10983 10982 10980 10979 10977 10975
10992 10993 10994 10995 10995 10996 10996 10996 10996 10996 10997 10997 10997 10997 10997 10997 10997 10997 10997 10996 10996 10996 10996 10995 10994 10993 10992 10991 10990 10989 10988 10987 10986 10985 10983 10982 10981 10980 10978 10977 10975 10973
10989 10991 10992 10993 10994 10994 10995 10995 10995 10996 10996 10996 10996 10996 10996 10995 10995 10995 10995 10995 10994 10993 10993 10993 10992 10991 10991 10990 10989 10988 10987 10986 10984 10983 10982 10981 10979 10978 10976 10975 10973 10971
10988 10989 10990 10991 10992 10993 10993 10994 10994 10995 10995 10995 10994 10994 10994 10994 10994 10993 10993 10993 10992 10991 10991 10991 10990 10989 10989 10988 10987 10986 10985 10984 10983 10982 10980 10979 10978 10976 10974 10973 10971 10969
10986 10987 10988 10989 10990 10991 10991 10992 10993 10993 10993 10993 10992 10992 10992 10992 10992 10991 10991 10990 10990 10989 10989 10989 10988 10987 10987 10986 10985 10984 10983 10982 10981 10979 10978 10977 10976 10974 10972 10970 10969 10967
10983 10985 10986 10988 10988 10989 10989 10990 10991 10991 10991 10991 10990 10989 10989 10989 10989 10989 10988 10988 10988 10987 10987 10986 10986 10985 10984 10983 10982 10981 10980 10979 10978 10977 10976 10974 10973 10972 10970 10968 10966 10965
10981 10983 10984 10985 10986 10987 10987 10988 10988 10988 10988 10988 10988 10987 10987 10986 10986 10986 10986 10985 10985 10985 10984 10984 10983 10982 10982 10981 10980 10979 10978 10977 10976 10974 10973 10972 10970 10969 10967 10965 10963 10962
10979 10980 10981 10982 10983 10984 10985 10986 10986 10985 10985 10985 10985 10985 10984 10984 10983 10983 10983 10983 10982 10982 10982 10981 10980 10979 10979 10978 10977 10976 10974 10974 10973 10971 10970 10969 10967 10966 10964 10962 10960 10958
10976 10977 10979 10980 10981 10982 10982 10983 10982 10982 10982 10981 10981 10981 10981 10981 10981 10980 10980 10980 10980 10979 10979 10978 10977 10976 10975 10974 10974 10973 10971 10970 10969 10968 10967 10966 10964 10962 10960 10959 10957 10955
10972 10974 10975 10976 10977 10978 10978 10979 10979 10978 10978 10978 10978 10978 10977 10977 10977 10977 10976 10976 10976 10976 10976 10975 10974 10973 10972 10971 10971 10970 10968 10967 10966 10965 10963 10962 10961 10959 10957 10955 10953 10951
10968 10970 10971 10972 10973 10974 10975 10975 10975 10974 10974 10974 10974 10974 10974 10974 10974 10973 10973 10973 10973 10973 10972 10971 10970 10969 10968 10968 10967 10966 10965 10964 10962 10961 10960 10958 10957 10955 10953 10951 10950 10948
10963 10965 10966 10968 10970 10970 10971 10971 10970 10970 10971 10970 10970 10970 10970 10970 10970 10969 10969 10969 10969 10969 10969 10968 10967 10966 10965 10964 10964 10963 10961 10960 10958 10957 10956 10955 10953 10951 10949 10947 10946 10944
10958 10960 10962 10964 10965 10966 10966 10966 10966 10966 10967 10967 10966 10966 10966 10966 10966 10965 10965 10965 10965 10965 10965 10965 10964 10962 10961 10961 10960 10959 10958 10956 10954 10953 10952 10951 10949 10947 10945 10943 10941 10940
10953 10955 10957 10959 10960 10961 10961 10961 10961 10961 10962 10962 10962 10962 10962 10962 10961 10961 10961 10961 10961 10961 10961 10961 10960 10958 10957 10956 10956 10955 10954 10952 10950 10949 10948 10946 10945 10942 10940 10938 10937 10936
10949 10950 10952 10954 10955 10955 10955 10956 10956 10956 10957 10957 10957 10958 10957 10957 10957 10957 10957 10956 10956 10957 10957 10956 10955 10954 10952 10952 10952 10951 10950 10948 10946 10944 10943 10942 10940 10938 10935 10933 10932 10931
10944 10945 10947 10949 10950 10950 10951 10951 10951 10952 10952 10953 10953 10953 10953 10953 10953 10953 10952 10952 10952 10952 10952 10951 10950 10949 10947 10947 10947 10946 10945 10943 10941 10939 10938 10936 10935 10933 10930 10927 10926 10925
10939 10940 10941 10943 10945 10946 10946 10946 10947 10947 10948 10948 10947 10948 10948 10948 10948 10947 10947 10947 10946 10946 10946 10946 10945 10943 10942 10942 10942 10940 10939 10938 10936 10934 10933 10931 10929 10927 10924 10922 10921 10920
10933 10935 10936 10937 10939 10940 10941 10942 10942 10942 10942 10942 10942 10942 10942 10942 10942 10942 10942 10942 10941 10941 10940 10940 10939 10938 10937 10936 10936 10935 10934 10932 10931 10929 10927 10925 10923 10921 10918 10916 10915 10913
10928 10930 10930 10931 10933 10935 10936 10937 10937 10936 10936 10936 10936 10936 10937 10936 10936 10937 10937 10937 10936 10936 10935 10934 10933 10931 10930 10930 10930 10929 10928 10927 10925 10923 10921 10919 10916 10914 10913 10910 10909 10907
10922 10923 10924 10926 10927 10929 10930 10931 10931 10930 10929 10930 10930 10931 10931 10931 10931 10931 10931 10931 10931 10931 10929 10928 10926 10924 10923 10923 10923 10923 10922 10921 10919 10917 10915 10912 10910 10908 10907 10904 10902 10901
10916 10917 10918 10920 10921 10923 10924 10924 10924 10923 10923 10923 10924 10925 10926 10926 10926 10925 10924 10924 10925 10925 10924 10922 10920 10918 10917 10916 10916 10916 10915 10914 10913 10910 10908 10906 10903 10901 10900 10898 10895 10894
10911 10912 10913 10914 10915 10917 10917 10916 10917 10917 10917 10917 10918 10919 10920 10920 10919 10919 10918 10918 10918 10918 10917 10916 10913 10911 10910 10909 10908 10908 10908 10907 10905 10903 10901 10899 10896 10894 10893 10890 10888 10887
10905 10906 10907 10908 10909 10908 10908 10908 10909 10910 10910 10911 10911 10912 10912 10912 10912 10912 10913 10912 10911 10910 10909 10908 10906 10904 10903 10901 10900 10900 10900 10899 10897 10895 10893 10891 10888 10887 10885 10883 10881 10880
10899 10900 10900 10900 10899 10899 10899 10900 10901 10903 10903 10904 10904 10904 10904 10904 10904 10905 10905 10904 10904 10903 10902 10900 10898 10896 10894 10892 10891 10891 10892 10891 10889 10887 10886 10883 10881 10879 10877 10876 10874 10873
10892 10893 10892 10891 10891 10892 10893 10894 10895 10896 10897 10897 10897 10897 10897 10897 10897 10896 10896 10896 10896 10896 10894 10892 10890 10888 10886 10884 10883 10883 10884 10883 10882 10880 10878 10875 10873 10871 10870 10869 10868 10866
10885 10886 10885 10885 10885 10887 10888 10888 10889 10890 10891 10891 10891 10891 10891 10890 10890 10889 10888 10887 10888 10888 10887 10884 10883 10881 10879 10876 10875 10875 10875 10875 10874 10872 10870 10868 10866 10865 10863 10862 10861 10859